User: anonymous   Login
Location: Leesville
(37.1191°N, 79.3856°W)
Time: 18:26:08
(UTC+00:00)
Language:

SEEDS - Orbit

View from above orbital plane
View from above orbital plane
View from above satellite
View from above satellite

Ground track
Ground track

The orbit data is extracted from the following two-line orbital elements,

1 32791U 08021J   24339.85602793  .00020395  00000-0  12240-2 0  9994
2 32791  97.7113 311.0379 0007665  85.7879 274.4226 15.10935015902305
Epoch (UTC): 04 December 2024 20:32:40
Eccentricity: 0.0007665
inclination: 97.7113°
perigee height: 528 km
apogee height: 538 km
right ascension of ascending node: 311.0379°
argument of perigee: 85.7879°
revolutions per day: 15.10935015
mean anomaly at epoch: 274.4226°
orbit number at epoch: 90230

The dashed part of the orbit path shows where the satellite is in the earth's shadow,  

DLR